VK1ET-13 Weather Reports


time (UTC)temp
F
wind
direction
speed
knots
gust
knots
rain 1hr
in
rain 24hr
in
rain mn
in
humidity
%
barometer
mb
20260831102520 60 0.0 0.0 0.00 0.00 0.00 71 1028.4
20260831101531 61 63 0.0 1.7 0.00 0.00 0.00 68 1028.4
20260831100523 62 0.0 0.9 0.00 0.00 0.00 66 1028.2
20260831095040 63 214 0.0 1.7 0.00 0.00 0.00 65 1028.3
20260831094020 62 229 0.9 2.6 0.00 0.00 0.00 66 1028.2
20260831093026 62 257 0.9 1.7 0.00 0.00 0.00 67 1028.3
20260831091532 62 0.0 0.9 0.00 0.00 0.00 69 1028.3
20260831090519 62 208 0.0 0.9 0.00 0.00 0.00 69 1028.3
20260831085521 62 0.0 1.7 0.00 0.00 0.00 69 1028.2
20260831084527 62 281 0.0 1.7 0.00 0.00 0.00 68 1028.2
20260831083532 63 172 0.0 1.7 0.00 0.00 0.00 67 1028.1
20260831082518 63 155 0.0 1.7 0.00 0.00 0.00 67 1028.2
20260831081524 64 350 0.9 2.6 0.00 0.00 0.00 65 1028.1
20260831080530 65 355 2.6 4.3 0.00 0.00 0.00 64 1028.0
20260831075535 65 352 2.6 5.2 0.00 0.00 0.00 63 1027.8
20260831074518 66 341 3.5 7.8 0.00 0.00 0.00 61 1027.9
20260831073530 67 337 3.5 7.8 0.00 0.00 0.00 59 1027.8
20260831072529 67 340 4.3 7.0 0.00 0.00 0.00 56 1027.8
20260831071533 68 342 4.3 8.7 0.00 0.00 0.00 54 1027.7
20260831070527 68 336 5.2 11.3 0.00 0.00 0.00 53 1027.9
20260831065525 69 325 6.1 9.6 0.00 0.00 0.00 50 1027.9
20260831064531 69 338 4.3 7.8 0.00 0.00 0.00 49 1027.9
20260831063547 69 326 5.2 9.6 0.00 0.00 0.00 49 1028.0
20260831062536 69 324 5.2 7.8 0.00 0.00 0.00 50 1027.8
20260831061522 70 327 5.2 9.6 0.00 0.00 0.00 47 1027.9
20260831060532 69 332 6.1 11.3 0.00 0.00 0.00 43 1027.9
20260831055535 70 334 6.1 11.3 0.00 0.00 0.00 38 1027.9
20260831054534 70 359 4.3 8.7 0.00 0.00 0.00 35 1027.8
20260831053518 70 346 3.5 7.0 0.00 0.00 0.00 40 1027.9
20260831052530 70 348 4.3 9.6 0.00 0.00 0.00 41 1028.1
20260831051529 70 357 4.3 8.7 0.00 0.00 0.00 41 1028.2
20260831050537 70 0 4.3 7.8 0.00 0.00 0.00 38 1028.2
20260831045523 71 342 5.2 9.6 0.00 0.00 0.00 36 1028.2
20260831044537 70 339 3.5 7.8 0.00 0.00 0.00 37 1028.2
20260831043542 71 324 6.1 9.6 0.00 0.00 0.00 39 1028.3
20260831042521 70 345 3.5 7.0 0.00 0.00 0.00 42 1028.4
20260831041523 70 330 6.1 11.3 0.00 0.00 0.00 41 1028.4
20260831040530 70 329 5.2 9.6 0.00 0.00 0.00 40 1028.4
20260831035531 70 341 4.3 7.8 0.00 0.00 0.00 42 1028.5
20260831034535 70 327 5.2 11.3 0.00 0.00 0.00 40 1028.5
20260831033519 70 337 5.2 8.7 0.00 0.00 0.00 41 1028.7
20260831032522 69 334 4.3 8.7 0.00 0.00 0.00 43 1028.7
20260831031534 70 331 6.1 10.4 0.00 0.00 0.00 45 1029.1
20260831030535 69 329 5.2 8.7 0.00 0.00 0.00 45 1029.1
20260831025534 69 343 4.3 7.0 0.00 0.00 0.00 45 1029.1
20260831024525 69 342 3.5 8.7 0.00 0.00 0.00 44 1029.3
20260831023531 69 357 3.5 5.2 0.00 0.00 0.00 42 1029.5
20260831022531 68 347 3.5 6.1 0.00 0.00 0.00 39 1029.6
20260831021536 69 330 4.3 7.8 0.00 0.00 0.00 41 1029.8
20260831020519 68 329 3.5 7.8 0.00 0.00 0.00 43 1029.8
20260831015523 68 318 1.7 4.3 0.00 0.00 0.00 44 1029.9
20260831014529 66 278 0.9 2.6 0.00 0.00 0.00 47 1030.0
20260831013535 66 301 2.6 5.2 0.00 0.00 0.00 46 1030.2
20260831012520 65 301 1.7 4.3 0.00 0.00 0.00 49 1030.4
20260831011525 63 286 0.9 1.7 0.00 0.00 0.00 52 1030.4
20260831010535 62 289 2.6 3.5 0.00 0.00 0.00 57 1030.6
20260831005533 61 268 1.7 4.3 0.00 0.00 0.00 58 1030.7
20260831004517 60 206 1.7 3.5 0.00 0.00 0.00 59 1030.8
20260831003523 59 197 2.6 3.5 0.00 0.00 0.00 62 1030.9
20260831002534 59 191 2.6 5.2 0.00 0.00 0.00 63 1030.9
20260831001540 57 211 1.7 5.2 0.00 0.00 0.00 64 1031.1
20260831000517 56 194 2.6 3.5 0.00 0.00 0.00 65 1031.1
20260830235525 56 184 3.5 5.2 0.00 0.00 0.00 63 1031.1
20260830234528 55 195 2.6 4.3 0.00 0.00 0.00 63 1031.2
20260830233534 54 187 2.6 4.3 0.00 0.00 0.00 65 1031.2
20260830232518 54 174 3.5 6.1 0.00 0.00 0.00 65 1031.3
20260830231524 53 167 3.5 5.2 0.00 0.00 0.00 67 1031.4
20260830230529 53 163 3.5 5.2 0.00 0.00 0.00 68 1031.3
20260830225534 52 169 2.6 5.2 0.00 0.00 0.00 70 1031.3
20260830224519 52 188 1.7 3.5 0.00 0.00 0.00 74 1031.3
20260830223534 50 171 2.6 4.3 0.00 0.00 0.00 79 1031.3
20260830222518 50 190 2.6 3.5 0.00 0.00 0.00 82 1031.3
20260830221522 49 176 1.7 3.5 0.00 0.00 0.00 82 1031.2
20260830220529 48 169 1.7 3.5 0.00 0.00 0.00 85 1031.0
20260830215548 46 172 1.7 3.5 0.00 0.00 0.00 90 1031.1
20260830214520 45 173 2.6 3.5 0.00 0.00 0.00 93 1031.0
20260830213523 44 181 1.7 2.6 0.00 0.00 0.00 93 1031.0
20260830212528 43 172 1.7 3.5 0.00 0.00 0.00 92 1030.8
20260830211533 43 182 0.9 2.6 0.00 0.00 0.00 92 1030.8
20260830210518 43 267 0.0 1.7 0.00 0.00 0.00 93 1030.7
20260830205524 43 209 0.9 1.7 0.00 0.00 0.00 93 1030.7
20260830204528 43 189 0.0 1.7 0.00 0.00 0.00 93 1030.5
20260830203534 43 171 0.9 2.6 0.00 0.00 0.00 93 1030.4
20260830202518 43 115 0.0 1.7 0.00 0.00 0.00 93 1030.3
20260830201530 43 84 0.0 0.9 0.00 0.00 0.00 93 1030.1
20260830200528 42 37 0.9 1.7 0.00 0.00 0.00 93 1030.1
20260830195533 42 94 0.9 2.6 0.00 0.00 0.00 94 1029.9
20260830194518 42 145 1.7 3.5 0.00 0.00 0.00 95 1029.8
20260830193531 43 156 3.5 4.3 0.00 0.00 0.00 96 1029.7
20260830192530 43 172 1.7 2.6 0.00 0.00 0.00 95 1029.6
20260830191536 44 177 1.7 3.5 0.00 0.00 0.00 94 1029.6
20260830190520 45 164 1.7 3.5 0.00 0.00 0.00 93 1029.5
20260830185528 46 85 0.0 1.7 0.00 0.00 0.00 88 1029.3
20260830184532 45 71 1.7 3.5 0.00 0.00 0.00 95 1029.2
20260830183536 45 80 0.9 1.7 0.00 0.00 0.00 95 1029.2
20260830182522 45 84 0.0 1.7 0.00 0.00 0.00 95 1029.3
20260830181525 45 138 0.9 1.7 0.00 0.00 0.00 94 1029.4
20260830180534 46 131 0.9 1.7 0.00 0.00 0.00 94 1029.3
20260830175532 46 105 0.9 2.6 0.00 0.00 0.00 95 1029.0
20260830174516 46 73 1.7 2.6 0.00 0.00 0.00 96 1028.9
20260830173521 46 33 2.6 3.5 0.00 0.00 0.00 96 1029.0
20260830172524 46 62 0.9 3.5 0.00 0.00 0.00 96 1029.0
20260830171530 46 136 1.7 3.5 0.00 0.00 0.00 96 1029.1
20260830170534 47 41 0.9 2.6 0.00 0.00 0.00 95 1029.1
20260830165518 47 31 1.7 2.6 0.00 0.00 0.00 95 1029.3
20260830164522 47 68 1.7 2.6 0.00 0.00 0.00 95 1029.4
20260830163530 47 140 1.7 2.6 0.00 0.00 0.00 95 1029.2
20260830162533 48 125 1.7 2.6 0.00 0.00 0.00 94 1029.4
20260830161519 48 152 1.7 3.5 0.00 0.00 0.00 95 1029.3
20260830160524 48 152 2.6 5.2 0.00 0.00 0.00 94 1029.6
20260830155528 48 137 1.7 3.5 0.00 0.00 0.00 94 1029.7
20260830154535 48 170 2.6 3.5 0.00 0.00 0.00 94 1029.7
20260830153524 48 142 1.7 3.5 0.00 0.00 0.00 94 1029.8
20260830152522 48 62 0.9 2.6 0.00 0.00 0.00 93 1029.7
20260830151528 48 27 1.7 3.5 0.00 0.00 0.00 93 1029.7
20260830150533 49 82 0.9 2.6 0.00 0.00 0.00 92 1029.9
20260830145517 49 18 2.6 5.2 0.00 0.00 0.00 92 1030.0
20260830144522 49 143 1.7 2.6 0.00 0.00 0.00 92 1030.0
20260830143526 50 153 2.6 4.3 0.00 0.00 0.00 91 1030.1
20260830142532 50 79 1.7 4.3 0.00 0.00 0.00 90 1030.0
20260830141534 50 73 0.9 2.6 0.00 0.00 0.00 91 1030.1
20260830140517 49 161 1.7 4.3 0.00 0.00 0.00 92 1030.1
20260830135523 50 155 1.7 4.3 0.00 0.00 0.00 91 1030.2
20260830134526 50 27 2.6 5.2 0.00 0.00 0.00 91 1030.3
20260830133530 50 136 0.9 2.6 0.00 0.00 0.00 90 1030.1
20260830132534 51 109 1.7 3.5 0.00 0.00 0.00 89 1030.3
20260830131518 51 147 0.9 3.5 0.00 0.00 0.00 90 1030.3
20260830130539 51 328 0.9 3.5 0.00 0.00 0.00 87 1030.5
20260830125527 52 167 0.9 1.7 0.00 0.00 0.00 87 1030.3
20260830124530 53 0.0 0.9 0.00 0.00 0.00 85 1030.4
20260830123534 53 0.0 1.7 0.00 0.00 0.00 84 1030.3
20260830122517 53 0.0 0.0 0.00 0.00 0.00 84 1030.5
20260830121520 54 0.0 0.0 0.00 0.00 0.00 83 1030.5
20260830120525 54 0.0 0.9 0.00 0.00 0.00 82 1030.4
20260830115530 54 138 0.9 1.7 0.00 0.00 0.00 82 1030.3
20260830114518 55 146 0.0 0.9 0.00 0.00 0.00 80 1030.3
20260830113521 56 0.0 0.0 0.00 0.00 0.00 78 1030.3
20260830112528 56 68 0.9 1.7 0.00 0.00 0.00 79 1030.2
20260830111531 56 0.0 0.0 0.00 0.00 0.00 78 1030.2
20260830110536 56 39 0.0 0.9 0.00 0.00 0.00 80 1030.1
20260830105520 55 177 0.0 0.9 0.00 0.00 0.00 80 1029.9
20260830104525 56 0.0 0.0 0.00 0.00 0.00 79 1029.8
20260830103528 57 195 0.9 1.7 0.00 0.00 0.00 76 1029.7